TimeCST,TemperatureF,Dew PointF,Humidity,Sea Level PressureIn,VisibilityMPH,Wind Direction,Wind SpeedMPH,Gust SpeedMPH,PrecipitationIn,Events,Conditions,WindDirDegrees,DateUTC
12:52 AM,53.6,48.2,82,30.28,8.0,Calm,Calm,-,N/A,,Scattered Clouds,0,2012-10-28 05:52:00
1:46 AM,53.6,48.2,82,30.26,8.0,South,4.6,-,N/A,,Scattered Clouds,190,2012-10-28 06:46:00
1:48 AM,53.6,48.2,82,30.24,8.0,South,8.1,-,N/A,,Mostly Cloudy,180,2012-10-28 07:48:00
3:53 AM,53.6,48.2,82,30.26,8.0,NE,6.9,-,N/A,,Scattered Clouds,50,2012-10-28 09:53:00
4:44 AM,53.6,48.2,82,30.26,10.0,Calm,Calm,-,N/A,,Mostly Cloudy,0,2012-10-28 10:44:00
5:43 AM,51.8,48.2,88,30.28,10.0,Calm,Calm,-,N/A,,Mostly Cloudy,0,2012-10-28 11:43:00
6:28 AM,51.8,48.2,88,30.30,3.0,NNE,12.7,-,N/A,,Mostly Cloudy,30,2012-10-28 12:28:00
6:47 AM,53.6,48.2,82,30.31,3.0,NE,9.2,-,N/A,,Overcast,40,2012-10-28 12:47:00
7:40 AM,53.6,48.2,82,30.33,2.0,ENE,10.4,-,N/A,,Haze,60,2012-10-28 13:40:00
8:40 AM,53.6,48.2,82,30.34,6.0,ENE,11.5,-,N/A,,Overcast,60,2012-10-28 14:40:00
9:40 AM,55.4,48.2,77,30.35,10.0,East,6.9,-,N/A,,Overcast,90,2012-10-28 15:40:00
10:42 AM,60.8,50.0,68,30.34,10.0,Calm,Calm,-,N/A,,Scattered Clouds,0,2012-10-28 16:42:00
11:40 AM,64.4,51.8,64,30.32,10.0,Calm,Calm,-,N/A,,Partly Cloudy,0,2012-10-28 17:40:00
12:41 PM,69.8,48.2,46,30.29,10.0,NE,5.8,-,N/A,,Partly Cloudy,40,2012-10-28 18:41:00
1:47 PM,71.6,46.4,41,30.25,10.0,NNE,11.5,-,N/A,,Scattered Clouds,20,2012-10-28 19:47:00
2:44 PM,73.4,42.8,33,30.22,10.0,NNW,5.8,-,N/A,,Scattered Clouds,340,2012-10-28 20:44:00
3:43 PM,71.6,39.2,31,30.21,10.0,South,3.5,-,N/A,,Mostly Cloudy,180,2012-10-28 21:43:00
4:40 PM,73.4,42.8,33,30.21,10.0,NE,5.8,-,N/A,,Mostly Cloudy,50,2012-10-28 22:40:00
5:43 PM,69.8,42.8,38,30.23,10.0,NE,8.1,-,N/A,,Mostly Cloudy,40,2012-10-28 23:43:00
6:52 PM,64.4,42.8,45,30.24,10.0,Calm,Calm,-,N/A,,Mostly Cloudy,0,2012-10-29 00:52:00
8:43 PM,60.8,46.4,59,30.29,10.0,NE,13.8,-,N/A,,Mostly Cloudy,50,2012-10-29 02:43:00
9:41 PM,57.2,46.4,67,30.32,10.0,NNE,9.2,-,N/A,,Mostly Cloudy,30,2012-10-29 03:41:00
10:40 PM,59.0,44.6,59,30.34,10.0,North,11.5,-,N/A,,Mostly Cloudy,360,2012-10-29 04:40:00